Regional Weather Roundup
Issued by NWS

Home | Current Version | Previous Version | Text Only | Print | Product List | Glossary On
Versions: 1 2 3 4 5 6 7 8 9 10 11 12 13 14 15 16 17 18 19 20 21 22 23 24 25 26 27 28 29 30 31 32 33 34 35 36 37 38 39 40 41 42 43 44 45 46 47 48 49 50
000
ASUS44 KOUN 020210
RWROK

WEATHER ROUNDUP FOR OKLAHOMA
NATIONAL WEATHER SERVICE NORMAN OK
900 PM CDT SUN MAY 01 2016

NOTE: "FAIR" INDICATES FEW OR NO CLOUDS BELOW 12,000 FEET WITH NO
      SIGNIFICANT WEATHER AND/OR OBSTRUCTIONS TO VISIBILITY.

OKZ001>007-009>012-014-015-017-020300-
NORTHWEST OKLAHOMA AND THE PANHANDLE

CITY           SKY/WX    TMP DP  RH WIND       PRES   REMARKS
GAGE           CLOUDY    48  41  76 N8        30.20R
GUYMON         CLOUDY    43  39  86 N3        30.23R
ENID/WOODRING  MOCLDY    54  45  71 N12       30.13R
$$

OKZ016-021>023-033>039-044-045-020300-
SOUTHWEST OKLAHOMA

CITY           SKY/WX    TMP DP  RH WIND       PRES   REMARKS
LAWTON/REGL    CLOUDY    54  47  77 N16G24    30.12R
LAWTON/FT SILL CLOUDY    52  50  93 N13       30.11R
FREDERICK      CLOUDY    55  48  77 N9        30.12R
CLINTON        CLOUDY    51  42  71 N10       30.19R
HOBART         CLOUDY    53  44  71 N10       30.17R
ALTUS AFB      CLOUDY    54  42  65 N14       30.16R
$$

OKZ018>020-024>031-020300-
CENTRAL OKLAHOMA

CITY           SKY/WX    TMP DP  RH WIND       PRES   REMARKS
OKLAHOMA CITY  CLOUDY    54  47  77 N10       30.12R
OKC/WILEY POST CLOUDY    53  46  77 N12       30.13R
OKC/TINKER AFB CLOUDY    54  47  76 N12       30.11R
STILLWATER     CLOUDY    53  46  77 NW8       30.12R
GUTHRIE        CLOUDY    52  46  80 VRB5      30.13R
$$

OKZ008-013-054>072-020300-
NORTHEAST OKLAHOMA

CITY           SKY/WX    TMP DP  RH WIND       PRES   REMARKS
TULSA          CLOUDY    59  50  72 NW7       30.09R
TULSA/JONES    CLOUDY    61  47  59 N9        30.10R
PONCA CITY     CLOUDY    53  44  71 N6        30.13R
BARTLESVILLE   MOCLDY    56  46  69 CALM      30.12R
MUSKOGEE       PTCLDY    60  49  66 N7        30.07R
$$

OKZ032-040>043-046>053-073>077-020300-
SOUTH CENTRAL/SOUTHEAST OKLAHOMA

CITY           SKY/WX    TMP DP  RH WIND       PRES   REMARKS
ARDMORE/DWNTWN CLOUDY    63  45  51 N8        30.06R
MCALESTER      CLEAR     60  49  66 N6        30.05R
$$




USA.gov is the U.S. government's official web portal to all federal, state and local government web resources and services.